STARLINK-31953, 59898

Orbit data source: Space-Track

STARLINK-31953, 59898 is a payload satellite owned by SpaceX/Seattle (US) in LEO that was launched on Tue, 28 May 2024 UTC via an FALCON 9 launch vehicle from the Air Force Eastern Test Range (AFETR). Payload-class satellites include a variety of spacecraft equipped with specific instruments for various scientific and technological missions. These include communications satellites like Starlink; space stations such as the ISS; scientific satellites like the Hubble; Earth observation satellites from companies like Planet Labs, Umbra, and HawkEye 360; GPS; miniature CubeSats for education and research; and military/defense satellites.

Loading next visibility...
Identifier
59898, 2024-100P
Orbit
LEO
Country
Flag of USUS
Related business
Manufacturer
SpaceX/Seattle
Mission
Operational spacecraft
Bus & Motor
STARLINK V2M, Unknown motor
Mass
730 kg wet, ~700 kg dry
Launch date (UTC)
2024-05-28 (1 year ago)
Launch vehicle
FALCON 9
Launch site
Air Force Eastern Test Range (AFETR)
Object type
Payload
Rocket body
Debris
Shape & HBR
Unknown
Radar Cross Section
Large (>1 m²)

Expand to show TLE details & history
Last TLE update: 23 hours ago

TLE from 23 hours ago
0 STARLINK-31953
1 59898U 24100P   25260.07170202 -.00001197  00000-0 -33995-4 0  9993
2 59898  43.0066  22.4938 0000958 289.2034  70.8714 15.27573799 74641
Epoch: 2025-09-17T01:43Z
TLE epoch observation values (Epoch: 2025-09-17T01:43:15.054Z)
Latitude
-0.00002°
Longitude
0.42814°
Altitude
482.629 km
Speed
7.626 km/s
True Right ascension
01h 29m 58s
True Declination
0° 00' 00"
Sunlit
Object was in full shadow at epoch
Visualization orbit readout
Latitude
Unknown
Longitude
Unknown
Altitude
Unknown
Speed
Unknown
Apparent Right ascension
Unknown
Apparent Declination
Unknown
Sunlit
N/A
Visualization observer readout
Local Sidereal Time
17:34:06
Azimuth
Unknown
Elevation
Unknown
Doppler factor
Unknown
Orbital elements
Apogee altitude
485.669 km
Perigee altitude
484.354 km
Semi-major axis
6,863.149 km
Eccentricity
0.0001
Inclination
43.0066°
RAAN
22.4938°
Arg. of periapsis
289.2034°
True anomaly
70.88177°
Mean anomaly
70.8714°
Eccentric anomaly
70.87659°
Mean motion
3.81732 °/min
Orbital period
94.31 mins
BSTAR
-0.000033995
Loading maneuver chart data...
Computing Atmospheric mass density...
Loading historical data...
Loading historical data...
Loading historical data...
Loading historical data...
Loading historical data...
Loading historical data...
Loading historical data...

Documentation

Showing up to 5 results
|